Weather History for KMRY

Nearest airport to NA, NA.

See history from more local stations
Change the Weather History Date:

Monday, November 4, 2013

  Actual Average Record
Temperature  
Mean Temperature 50 °F 56 °F  
Max Temperature 60 °F 65 °F 85 °F (2010)
Min Temperature 40 °F 48 °F 40 °F (2013)
Degree Days  
Heating Degree Days 15    
Month to date heating degree days 44  
Since 1 July heating degree days 535  
Cooling Degree Days 0    
Month to date cooling degree days 0  
Year to date cooling degree days 49  
Moisture  
Dew Point 39 °F    
Average Humidity 65    
Maximum Humidity 89    
Minimum Humidity 40    
Precipitation  
Precipitation 0.00 in - 0.42 in (2004)
Month to date precipitation 0.00  
Year to date precipitation 3.70  
Since 1 July precipitation 0.55  
Sea Level Pressure  
Sea Level Pressure 30.02 in    
Wind  
Wind Speed 4 mph (NE)    
Max Wind Speed 15 mph    
Max Gust Speed 22 mph    
Visibility 10 miles    
Events      
T = Trace of Precipitation, MM = Missing Value Source: NWS Daily Summary

Daily Weather History Graph

Daily Weather History Graph

Search for Another Location

Airport or City:

Trip Planner

Search our weather history database for the weather conditions in past years. The results will help you decide how hot, cold, wet, or windy it might be!

Date:

Astronomy

Nov. 04, 2013 Rise Set
Actual Time 6:34 AM PST 5:07 PM PST
Civil Twilight 6:07 AM PST 5:34 PM PST
Nautical Twilight 5:36 AM PST 6:04 PM PST
Astronomical Twilight 5:06 AM PST 6:35 PM PST
Moon 7:48 AM PST (11/4) 6:18 PM PST (11/4)
Length of Visible Light 11h 26m
Length of Day
10h 33m
New Moon, 2% of the Moon is Illuminated
Nov 4
New Moon
Nov 9
First Quarter
Nov 17
Full
Nov 25
Last Quarter
Dec 2
New

Hourly Weather History & Observations

Time (PST) Temp. Windchill Dew Point Humidity Pressure Visibility Wind Dir Wind Speed Gust Speed Precip Events Conditions
12:54 AM 46.9 °F - 42.1 °F 83% 29.96 in 10.0 mi ENE 3.5 mph - N/A   Clear
1:54 AM 46.0 °F 44.8 °F 39.9 °F 79% 29.97 in 10.0 mi East 3.5 mph - N/A   Clear
2:54 AM 43.0 °F 40.3 °F 37.0 °F 80% 29.96 in 10.0 mi East 4.6 mph - N/A   Clear
3:54 AM 43.0 °F 41.3 °F 39.0 °F 86% 29.95 in 10.0 mi East 3.5 mph - N/A   Clear
4:54 AM 43.0 °F 41.3 °F 36.0 °F 76% 29.96 in 10.0 mi East 3.5 mph - N/A   Clear
5:54 AM 41.0 °F 38.0 °F 35.1 °F 79% 29.99 in 10.0 mi East 4.6 mph - N/A   Clear
6:54 AM 41.0 °F 36.4 °F 36.0 °F 82% 30.01 in 10.0 mi East 6.9 mph - N/A   Clear
7:54 AM 48.0 °F - 39.9 °F 74% 30.04 in 10.0 mi ENE 5.8 mph - N/A   Clear
8:54 AM 55.9 °F - 37.9 °F 51% 30.04 in 10.0 mi Calm Calm - N/A   Clear
9:54 AM 57.9 °F - 36.0 °F 44% 30.04 in 10.0 mi NW 3.5 mph - N/A   Clear
10:54 AM 57.9 °F - 34.0 °F 41% 30.05 in 10.0 mi NW 5.8 mph - N/A   Clear
11:54 AM 57.0 °F - 45.0 °F 64% 30.03 in 10.0 mi Calm Calm - N/A   Clear
12:54 PM 57.9 °F - 44.1 °F 60% 30.01 in 10.0 mi WNW 8.1 mph - N/A   Clear
1:54 PM 59.0 °F - 43.0 °F 55% 30.01 in 10.0 mi WNW 8.1 mph 16.1 mph N/A   Clear
2:54 PM 59.0 °F - 43.0 °F 55% 30.01 in 10.0 mi West 6.9 mph - N/A   Clear
3:54 PM 60.1 °F - 41.0 °F 49% 30.01 in 10.0 mi Variable 5.8 mph - N/A   Clear
4:54 PM 57.0 °F - 43.0 °F 59% 30.02 in 10.0 mi WNW 13.8 mph 20.7 mph N/A   Clear
5:54 PM 55.0 °F - 46.0 °F 72% 30.05 in 10.0 mi WNW 6.9 mph - N/A   Clear
6:54 PM 53.1 °F - 44.1 °F 71% 30.07 in 10.0 mi Calm Calm - N/A   Clear
7:54 PM 51.1 °F - 39.0 °F 63% 30.06 in 10.0 mi Calm Calm - N/A   Clear
8:54 PM 48.0 °F - 37.0 °F 66% 30.07 in 10.0 mi Calm Calm - N/A   Clear
9:54 PM 48.9 °F - 36.0 °F 61% 30.09 in 10.0 mi Calm Calm - N/A   Clear
10:54 PM 46.9 °F - 34.0 °F 61% 30.09 in 10.0 mi East 5.8 mph - N/A   Clear
11:54 PM 46.9 °F - 33.1 °F 59% 30.09 in 10.0 mi Calm Calm - N/A   Clear